| time (UTC) | temp F | wind direction | speed knots | gust knots | rain 1hr in | rain 24hr in | rain mn in | humidity % | barometer mb |
| 20260504081531 | 46 | 205 | 4.3 | 8.7 | 0.00 | 0.00 | 0.00 | 72 | 1006.1 |
| 20260504044532 | 45 | 217 | 2.6 | 5.2 | 0.00 | 0.00 | 0.00 | 60 | 1006.8 |
| 20260504043035 | 44 | 216 | 2.6 | 6.1 | 0.00 | 0.00 | 0.00 | 60 | 1006.9 |
| 20260504041535 | 44 | 225 | 1.7 | 4.3 | 0.00 | 0.00 | 0.00 | 58 | 1007.0 |
| 20260504040040 | 44 | 227 | 1.7 | 4.3 | 0.00 | 0.00 | 0.00 | 58 | 1006.9 |
| 20260504034542 | 44 | 237 | 2.6 | 4.3 | 0.00 | 0.00 | 0.00 | 58 | 1007.1 |
| 20260504033034 | 43 | 209 | 1.7 | 4.3 | 0.00 | 0.00 | 0.00 | 59 | 1007.0 |
| 20260504031542 | 42 | 205 | 0.9 | 2.6 | 0.00 | 0.00 | 0.00 | 62 | 1006.9 |
| 20260504030040 | 42 | 0 | 0.0 | 3.5 | 0.00 | 0.00 | 0.00 | 64 | 1007.1 |
| 20260504024538 | 41 | 224 | 0.0 | 1.7 | 0.00 | 0.00 | 0.00 | 65 | 1007.1 |
| 20260504023036 | 41 | 0 | 0.0 | 0.0 | 0.00 | 0.00 | 0.00 | 66 | 1007.2 |
| 20260504021532 | 42 | 0 | 0.0 | 0.0 | 0.00 | 0.00 | 0.00 | 65 | 1007.4 |
| 20260504020035 | 42 | 0 | 0.9 | 1.7 | 0.00 | 0.00 | 0.00 | 64 | 1007.4 |
| 20260504014536 | 42 | 218 | 0.9 | 2.6 | 0.00 | 0.00 | 0.00 | 64 | 1007.4 |
| 20260504013032 | 42 | 0 | 0.0 | 1.7 | 0.00 | 0.00 | 0.00 | 64 | 1007.4 |
| 20260504011535 | 42 | 210 | 0.0 | 1.7 | 0.00 | 0.00 | 0.00 | 64 | 1007.4 |
| 20260504010038 | 43 | 214 | 0.0 | 0.9 | 0.00 | 0.00 | 0.00 | 64 | 1007.3 |
| 20260504004532 | 43 | 0 | 0.0 | 0.9 | 0.00 | 0.01 | 0.00 | 64 | 1007.2 |
| 20260504003031 | 44 | 0 | 0.0 | 0.9 | 0.00 | 0.01 | 0.00 | 63 | 1007.2 |
| 20260504001537 | 45 | 201 | 0.0 | 0.9 | 0.00 | 0.01 | 0.00 | 61 | 1007.1 |
| 20260504000035 | 47 | 0 | 0.0 | 0.0 | 0.00 | 0.01 | 0.00 | 59 | 1007.0 |
| 20260503234536 | 49 | 229 | 0.9 | 3.5 | 0.00 | 0.01 | 0.00 | 53 | 1007.0 |
| 20260503233035 | 50 | 224 | 2.6 | 4.3 | 0.00 | 0.01 | 0.00 | 53 | 1006.9 |
| 20260503231545 | 51 | 238 | 2.6 | 4.3 | 0.00 | 0.01 | 0.00 | 54 | 1006.9 |
| 20260503230038 | 50 | 251 | 1.7 | 2.6 | 0.00 | 0.01 | 0.00 | 59 | 1006.9 |
| 20260503224536 | 50 | 291 | 0.9 | 2.6 | 0.00 | 0.02 | 0.00 | 51 | 1006.8 |
| 20260503223039 | 50 | 326 | 2.6 | 4.3 | 0.00 | 0.02 | 0.00 | 49 | 1006.9 |
| 20260503221538 | 50 | 340 | 1.7 | 5.2 | 0.00 | 0.02 | 0.00 | 50 | 1006.9 |
| 20260503220038 | 51 | 320 | 0.0 | 2.6 | 0.00 | 0.02 | 0.00 | 50 | 1007.0 |
| 20260503214542 | 50 | 330 | 0.9 | 4.3 | 0.00 | 0.02 | 0.00 | 52 | 1006.9 |
| 20260503213051 | 50 | 2 | 1.7 | 6.1 | 0.00 | 0.02 | 0.00 | 50 | 1007.0 |
| 20260503211556 | 50 | 5 | 3.5 | 6.1 | 0.00 | 0.02 | 0.00 | 51 | 1007.0 |
| 20260503210036 | 50 | 28 | 1.7 | 5.2 | 0.00 | 0.02 | 0.00 | 53 | 1007.0 |
| 20260503204551 | 50 | 43 | 2.6 | 5.2 | 0.00 | 0.02 | 0.00 | 52 | 1007.0 |
| 20260503203035 | 50 | 358 | 2.6 | 6.1 | 0.00 | 0.02 | 0.00 | 53 | 1007.0 |
| 20260503201534 | 49 | 58 | 3.5 | 8.7 | 0.00 | 0.02 | 0.00 | 51 | 1007.2 |
| 20260503200034 | 49 | 18 | 3.5 | 7.8 | 0.00 | 0.02 | 0.00 | 53 | 1007.5 |
| 20260503194531 | 49 | 298 | 3.5 | 6.1 | 0.00 | 0.02 | 0.00 | 54 | 1007.5 |
| 20260503193039 | 48 | 349 | 2.6 | 5.2 | 0.00 | 0.02 | 0.00 | 57 | 1007.8 |
| 20260503191539 | 48 | 319 | 2.6 | 7.0 | 0.00 | 0.02 | 0.00 | 56 | 1007.8 |
| 20260503190034 | 48 | 360 | 3.5 | 7.0 | 0.00 | 0.02 | 0.00 | 57 | 1007.9 |
| 20260503184535 | 49 | 298 | 2.6 | 8.7 | 0.00 | 0.02 | 0.00 | 58 | 1007.9 |
| 20260503183042 | 47 | 43 | 3.5 | 8.7 | 0.00 | 0.02 | 0.00 | 58 | 1008.0 |
| 20260503181532 | 48 | 18 | 2.6 | 9.6 | 0.00 | 0.02 | 0.00 | 59 | 1008.1 |
| 20260503180035 | 47 | 48 | 4.3 | 8.7 | 0.00 | 0.02 | 0.00 | 59 | 1008.1 |
| 20260503174545 | 48 | 40 | 5.2 | 9.6 | 0.00 | 0.02 | 0.00 | 58 | 1008.2 |
| 20260503173032 | 47 | 286 | 1.7 | 4.3 | 0.00 | 0.02 | 0.00 | 63 | 1008.1 |
| 20260503171535 | 46 | 12 | 1.7 | 6.1 | 0.00 | 0.02 | 0.00 | 61 | 1008.4 |